Location: Barcelona
(41.3830°N, 2.1830°E)
Time: 22:52:55
(UTC+02:00)

ISS - Pass Details

Date: 17 July 2017
Orbit: 400 x 408 km, 51.6° (Epoch: 24 July)

Event Time Altitude Azimuth Distance (km) Brightness Sun altitude
Exits shadow 02:19:27 16° 40° (NE) 1,138 -1.0 -27.2°
Drops below altitude 10° 02:20:16 10° 46° (NE) 1,454 -0.4 -27.2°
Sets 02:22:24 0° 52° (NE) 2,317 0.6 -27.2°
